| time (UTC) | temp F | wind direction | speed MPH | gust MPH | rain 1hr in | rain 24hr in | rain mn in | humidity % | barometer mb |
| 20260906082019 | 64 | 51 | 0.0 | 2.0 | 0.00 | 0.00 | 0.00 | 61 | 1019.2 |
| 20260906081503 | 65 | 51 | 0.0 | 2.0 | 0.00 | 0.00 | 0.00 | 61 | 1019.2 |
| 20260906081007 | 65 | 59 | 1.0 | 2.0 | 0.00 | 0.00 | 0.00 | 59 | 1019.2 |
| 20260906080508 | 65 | 263 | 0.0 | 2.0 | 0.00 | 0.00 | 0.00 | 58 | 1019.2 |
| 20260906080019 | 65 | 263 | 0.0 | 2.0 | 0.00 | 0.00 | 0.00 | 58 | 1019.3 |
| 20260906075512 | 66 | 263 | 0.0 | 2.0 | 0.00 | 0.00 | 0.00 | 57 | 1019.4 |
| 20260906075015 | 66 | 263 | 0.0 | 2.0 | 0.00 | 0.00 | 0.00 | 57 | 1019.4 |
| 20260906074528 | 66 | 263 | 0.0 | 2.0 | 0.00 | 0.00 | 0.00 | 56 | 1019.4 |
| 20260906074015 | 66 | 263 | 0.0 | 2.0 | 0.00 | 0.00 | 0.00 | 56 | 1019.3 |
| 20260906073504 | 67 | 263 | 0.0 | 1.0 | 0.00 | 0.00 | 0.00 | 55 | 1019.4 |
| 20260906073007 | 67 | 263 | 0.0 | 1.0 | 0.00 | 0.00 | 0.00 | 55 | 1019.4 |
| 20260906072506 | 67 | 263 | 0.0 | 0.0 | 0.00 | 0.00 | 0.00 | 53 | 1019.5 |
| 20260906072014 | 68 | 263 | 0.0 | 2.0 | 0.00 | 0.00 | 0.00 | 53 | 1019.4 |
| 20260906071523 | 68 | 263 | 0.0 | 2.0 | 0.00 | 0.00 | 0.00 | 53 | 1019.4 |
| 20260906071011 | 68 | 278 | 0.0 | 2.0 | 0.00 | 0.00 | 0.00 | 53 | 1019.4 |
| 20260906070518 | 69 | 290 | 0.0 | 2.0 | 0.00 | 0.00 | 0.00 | 52 | 1019.4 |
| 20260906070036 | 69 | 26 | 0.0 | 2.0 | 0.00 | 0.00 | 0.00 | 51 | 1019.3 |
| 20260906065507 | 70 | 26 | 0.0 | 2.0 | 0.00 | 0.00 | 0.00 | 51 | 1019.3 |
| 20260906065008 | 70 | 25 | 0.0 | 2.0 | 0.00 | 0.00 | 0.00 | 51 | 1019.3 |
| 20260906064515 | 71 | 63 | 0.0 | 2.0 | 0.00 | 0.00 | 0.00 | 49 | 1019.3 |
| 20260906064010 | 71 | 55 | 0.0 | 2.0 | 0.00 | 0.00 | 0.00 | 49 | 1019.4 |
| 20260906063513 | 71 | 140 | 0.0 | 2.0 | 0.00 | 0.00 | 0.00 | 47 | 1019.4 |
| 20260906063041 | 72 | 203 | 0.0 | 2.0 | 0.00 | 0.00 | 0.00 | 46 | 1019.4 |
| 20260906062515 | 73 | 203 | 0.0 | 2.0 | 0.00 | 0.00 | 0.00 | 44 | 1019.4 |
| 20260906062017 | 73 | 203 | 0.0 | 2.0 | 0.00 | 0.00 | 0.00 | 43 | 1019.4 |
| 20260906061510 | 73 | 203 | 0.0 | 1.0 | 0.00 | 0.00 | 0.00 | 42 | 1019.5 |
| 20260906061007 | 74 | 203 | 0.0 | 1.0 | 0.00 | 0.00 | 0.00 | 42 | 1019.4 |
| 20260906060509 | 74 | 203 | 0.0 | 2.0 | 0.00 | 0.00 | 0.00 | 42 | 1019.3 |
| 20260906060020 | 74 | 203 | 0.0 | 3.0 | 0.00 | 0.00 | 0.00 | 41 | 1019.2 |
| 20260906055519 | 74 | 344 | 1.0 | 3.0 | 0.00 | 0.00 | 0.00 | 41 | 1019.1 |
| 20260906055015 | 74 | 360 | 0.0 | 2.0 | 0.00 | 0.00 | 0.00 | 40 | 1019.2 |
| 20260906054533 | 74 | 18 | 0.0 | 2.0 | 0.00 | 0.00 | 0.00 | 40 | 1019.4 |
| 20260906054017 | 74 | 18 | 0.0 | 2.0 | 0.00 | 0.00 | 0.00 | 40 | 1019.6 |
| 20260906053506 | 74 | 167 | 0.0 | 2.0 | 0.00 | 0.00 | 0.00 | 40 | 1019.8 |
| 20260906053010 | 74 | 156 | 1.0 | 2.0 | 0.00 | 0.00 | 0.00 | 40 | 1019.9 |
| 20260906052508 | 74 | 165 | 0.0 | 2.0 | 0.00 | 0.00 | 0.00 | 40 | 1020.0 |
| 20260906052016 | 74 | 171 | 0.0 | 3.0 | 0.00 | 0.00 | 0.00 | 41 | 1020.1 |
| 20260906051540 | 74 | 178 | 0.0 | 3.0 | 0.00 | 0.00 | 0.00 | 41 | 1020.1 |
| 20260906051016 | 73 | 134 | 0.0 | 2.0 | 0.00 | 0.00 | 0.00 | 42 | 1019.9 |
| 20260906050517 | 73 | 120 | 1.0 | 2.0 | 0.00 | 0.00 | 0.00 | 44 | 1019.8 |
| 20260906050008 | 73 | 168 | 0.0 | 2.0 | 0.00 | 0.00 | 0.00 | 44 | 1019.7 |
| 20260906045507 | 73 | 175 | 0.0 | 2.0 | 0.00 | 0.00 | 0.00 | 43 | 1019.4 |
| 20260906045012 | 74 | 101 | 0.0 | 2.0 | 0.00 | 0.00 | 0.00 | 42 | 1019.3 |
| 20260906044516 | 74 | 105 | 0.0 | 2.0 | 0.00 | 0.00 | 0.00 | 42 | 1019.2 |
| 20260906044016 | 74 | 106 | 0.0 | 2.0 | 0.00 | 0.00 | 0.00 | 43 | 1019.1 |
| 20260906043515 | 74 | 183 | 0.0 | 2.0 | 0.00 | 0.00 | 0.00 | 42 | 1019.1 |
| 20260906043029 | 75 | 184 | 0.0 | 2.0 | 0.00 | 0.00 | 0.00 | 42 | 1019.1 |
| 20260906042517 | 75 | 128 | 0.0 | 3.0 | 0.00 | 0.00 | 0.00 | 42 | 1018.9 |
| 20260906042004 | 75 | 80 | 0.0 | 3.0 | 0.00 | 0.00 | 0.00 | 41 | 1018.8 |
| 20260906041511 | 75 | 63 | 1.0 | 2.0 | 0.00 | 0.00 | 0.00 | 39 | 1018.8 |
| 20260906041011 | 75 | 248 | 0.0 | 2.0 | 0.00 | 0.00 | 0.00 | 38 | 1018.7 |
| 20260906040511 | 75 | 248 | 0.0 | 3.0 | 0.00 | 0.00 | 0.00 | 38 | 1018.6 |
| 20260906040033 | 75 | 245 | 0.0 | 5.0 | 0.00 | 0.00 | 0.00 | 38 | 1018.6 |
| 20260906035512 | 75 | 248 | 1.0 | 5.0 | 0.00 | 0.00 | 0.00 | 38 | 1018.5 |
| 20260906035016 | 75 | 220 | 0.0 | 2.0 | 0.00 | 0.00 | 0.00 | 39 | 1018.5 |
| 20260906034537 | 75 | 96 | 0.0 | 2.0 | 0.00 | 0.00 | 0.00 | 40 | 1018.4 |
| 20260906034008 | 76 | 58 | 1.0 | 2.0 | 0.00 | 0.00 | 0.00 | 40 | 1018.3 |
| 20260906033508 | 76 | 227 | 1.0 | 4.0 | 0.00 | 0.00 | 0.00 | 39 | 1018.2 |
| 20260906033015 | 77 | 36 | 0.0 | 4.0 | 0.00 | 0.00 | 0.00 | 39 | 1018.1 |
| 20260906032512 | 77 | 63 | 2.0 | 4.0 | 0.00 | 0.00 | 0.00 | 38 | 1018.1 |
| 20260906032014 | 78 | 63 | 1.0 | 2.0 | 0.00 | 0.00 | 0.00 | 35 | 1018.0 |
| 20260906031537 | 78 | 232 | 0.0 | 2.0 | 0.00 | 0.00 | 0.00 | 34 | 1017.9 |
| 20260906031015 | 79 | 232 | 0.0 | 2.0 | 0.00 | 0.00 | 0.00 | 33 | 1017.9 |
| 20260906030520 | 79 | 229 | 0.0 | 2.0 | 0.00 | 0.00 | 0.00 | 33 | 1017.7 |
| 20260906030007 | 80 | 229 | 0.0 | 5.0 | 0.00 | 0.00 | 0.00 | 33 | 1017.7 |
| 20260906025511 | 80 | 294 | 0.0 | 5.0 | 0.00 | 0.00 | 0.00 | 33 | 1017.6 |
| 20260906025010 | 80 | 322 | 0.0 | 4.0 | 0.00 | 0.00 | 0.00 | 32 | 1017.5 |
| 20260906024524 | 80 | 266 | 0.0 | 4.0 | 0.00 | 0.00 | 0.00 | 32 | 1017.4 |
| 20260906024014 | 80 | 346 | 1.0 | 4.0 | 0.00 | 0.00 | 0.00 | 32 | 1017.4 |
| 20260906023516 | 80 | 280 | 1.0 | 4.0 | 0.00 | 0.00 | 0.00 | 32 | 1017.3 |
| 20260906023031 | 81 | 348 | 0.0 | 3.0 | 0.00 | 0.00 | 0.00 | 32 | 1017.3 |
| 20260906022518 | 81 | 315 | 1.0 | 3.0 | 0.00 | 0.00 | 0.00 | 31 | 1017.2 |
| 20260906022007 | 82 | 350 | 0.0 | 2.0 | 0.00 | 0.00 | 0.00 | 31 | 1017.0 |
| 20260906021512 | 82 | 350 | 0.0 | 2.0 | 0.00 | 0.00 | 0.00 | 30 | 1016.9 |
| 20260906021011 | 82 | 350 | 0.0 | 2.0 | 0.00 | 0.00 | 0.00 | 29 | 1016.8 |
| 20260906020513 | 83 | 350 | 1.0 | 6.0 | 0.00 | 0.00 | 0.00 | 29 | 1016.8 |
| 20260906020027 | 83 | 257 | 1.0 | 5.0 | 0.00 | 0.00 | 0.00 | 29 | 1016.9 |
| 20260906015516 | 83 | 221 | 1.0 | 7.0 | 0.00 | 0.00 | 0.00 | 29 | 1017.1 |
| 20260906015016 | 82 | 292 | 2.0 | 7.0 | 0.00 | 0.00 | 0.00 | 29 | 1017.1 |
| 20260906014534 | 82 | 338 | 1.0 | 6.0 | 0.00 | 0.00 | 0.00 | 29 | 1017.1 |
| 20260906014009 | 83 | 235 | 0.0 | 3.0 | 0.00 | 0.00 | 0.00 | 29 | 1017.1 |
| 20260906013509 | 83 | 287 | 1.0 | 3.0 | 0.00 | 0.00 | 0.00 | 29 | 1017.0 |
| 20260906013020 | 83 | 240 | 0.0 | 4.0 | 0.00 | 0.00 | 0.00 | 29 | 1016.8 |
| 20260906012513 | 83 | 283 | 1.0 | 6.0 | 0.00 | 0.00 | 0.00 | 29 | 1016.8 |
| 20260906012015 | 83 | 193 | 1.0 | 6.0 | 0.00 | 0.00 | 0.00 | 28 | 1016.9 |
| 20260906011530 | 84 | 268 | 2.0 | 6.0 | 0.00 | 0.00 | 0.00 | 28 | 1016.9 |
| 20260906011020 | 84 | 300 | 0.0 | 4.0 | 0.00 | 0.00 | 0.00 | 28 | 1016.9 |
| 20260906010517 | 84 | 311 | 1.0 | 4.0 | 0.00 | 0.00 | 0.00 | 28 | 1017.0 |
| 20260906010014 | 84 | 237 | 0.0 | 4.0 | 0.00 | 0.00 | 0.00 | 29 | 1017.0 |
| 20260906005510 | 85 | 245 | 1.0 | 4.0 | 0.00 | 0.00 | 0.00 | 29 | 1017.0 |
| 20260906005014 | 85 | 238 | 0.0 | 2.0 | 0.00 | 0.00 | 0.00 | 29 | 1017.0 |
| 20260906004526 | 85 | 310 | 0.0 | 3.0 | 0.00 | 0.00 | 0.00 | 28 | 1017.1 |
| 20260906004017 | 85 | 296 | 1.0 | 7.0 | 0.00 | 0.00 | 0.00 | 28 | 1017.1 |
| 20260906003516 | 86 | 286 | 1.0 | 7.0 | 0.00 | 0.00 | 0.00 | 28 | 1017.0 |
| 20260906003037 | 86 | 257 | 1.0 | 8.0 | 0.00 | 0.00 | 0.00 | 27 | 1017.1 |
| 20260906002518 | 86 | 5 | 1.0 | 8.0 | 0.00 | 0.00 | 0.00 | 27 | 1017.2 |
| 20260906002011 | 87 | 256 | 2.0 | 8.0 | 0.00 | 0.00 | 0.00 | 26 | 1017.2 |
| 20260906001516 | 88 | 284 | 3.0 | 8.0 | 0.00 | 0.00 | 0.00 | 25 | 1017.1 |
| 20260906001014 | 89 | 303 | 0.0 | 3.0 | 0.00 | 0.00 | 0.00 | 25 | 1017.1 |
| 20260906000514 | 89 | 321 | 1.0 | 5.0 | 0.00 | 0.00 | 0.00 | 24 | 1016.9 |
| 20260906000030 | 90 | 5 | 0.0 | 5.0 | 0.00 | 0.00 | 0.00 | 25 | 1016.9 |
| 20260905235516 | 90 | 338 | 2.0 | 6.0 | 0.00 | 0.00 | 0.00 | 22 | 1016.9 |
| 20260905235021 | 90 | 275 | 2.0 | 6.0 | 0.00 | 0.00 | 0.00 | 22 | 1017.1 |
| 20260905234535 | 89 | 5 | 1.0 | 2.0 | 0.00 | 0.00 | 0.00 | 23 | 1017.1 |
| 20260905234011 | 89 | 347 | 0.0 | 4.0 | 0.00 | 0.00 | 0.00 | 23 | 1017.0 |
| 20260905233512 | 89 | 337 | 1.0 | 4.0 | 0.00 | 0.00 | 0.00 | 23 | 1017.0 |
| 20260905233023 | 89 | 351 | 1.0 | 3.0 | 0.00 | 0.00 | 0.00 | 23 | 1016.8 |
| 20260905232515 | 90 | 320 | 1.0 | 3.0 | 0.00 | 0.00 | 0.00 | 22 | 1016.8 |
| 20260905232014 | 90 | 329 | 0.0 | 2.0 | 0.00 | 0.00 | 0.00 | 23 | 1016.8 |
| 20260905231532 | 90 | 13 | 0.0 | 2.0 | 0.00 | 0.00 | 0.00 | 23 | 1016.8 |
| 20260905231018 | 90 | 349 | 0.0 | 3.0 | 0.00 | 0.00 | 0.00 | 21 | 1016.7 |
| 20260905230515 | 90 | 345 | 1.0 | 4.0 | 0.00 | 0.00 | 0.00 | 22 | 1016.7 |
| 20260905230021 | 90 | 346 | 1.0 | 4.0 | 0.00 | 0.00 | 0.00 | 22 | 1016.6 |
| 20260905225511 | 90 | 313 | 0.0 | 3.0 | 0.00 | 0.00 | 0.00 | 21 | 1016.6 |
| 20260905225015 | 91 | 360 | 1.0 | 6.0 | 0.00 | 0.00 | 0.00 | 21 | 1016.6 |
| 20260905224529 | 91 | 333 | 2.0 | 6.0 | 0.00 | 0.00 | 0.00 | 23 | 1016.6 |
| 20260905224020 | 92 | 53 | 1.0 | 4.0 | 0.00 | 0.00 | 0.00 | 21 | 1016.6 |
| 20260905223518 | 93 | 12 | 1.0 | 2.0 | 0.00 | 0.00 | 0.00 | 21 | 1016.6 |
| 20260905223038 | 93 | 78 | 1.0 | 2.0 | 0.00 | 0.00 | 0.00 | 20 | 1016.6 |
| 20260905222517 | 93 | 67 | 0.0 | 3.0 | 0.00 | 0.00 | 0.00 | 20 | 1016.5 |
| 20260905222012 | 93 | 37 | 1.0 | 4.0 | 0.00 | 0.00 | 0.00 | 19 | 1016.6 |
| 20260905221521 | 93 | 65 | 1.0 | 4.0 | 0.00 | 0.00 | 0.00 | 20 | 1016.6 |
| 20260905221015 | 93 | 30 | 1.0 | 8.0 | 0.00 | 0.00 | 0.00 | 20 | 1016.6 |
| 20260905220515 | 93 | 347 | 2.0 | 8.0 | 0.00 | 0.00 | 0.00 | 20 | 1016.6 |
| 20260905220033 | 92 | 321 | 2.0 | 8.0 | 0.00 | 0.00 | 0.00 | 20 | 1016.7 |
| 20260905215516 | 92 | 343 | 2.0 | 7.0 | 0.00 | 0.00 | 0.00 | 20 | 1016.7 |
| 20260905215019 | 92 | 278 | 3.0 | 7.0 | 0.00 | 0.00 | 0.00 | 20 | 1016.8 |
| 20260905214532 | 93 | 42 | 0.0 | 4.0 | 0.00 | 0.00 | 0.00 | 21 | 1016.8 |
| 20260905214012 | 93 | 26 | 2.0 | 7.0 | 0.00 | 0.00 | 0.00 | 21 | 1016.9 |
| 20260905213514 | 93 | 303 | 0.0 | 7.0 | 0.00 | 0.00 | 0.00 | 20 | 1016.9 |
| 20260905213028 | 93 | 5 | 2.0 | 5.0 | 0.00 | 0.00 | 0.00 | 20 | 1016.9 |
| 20260905212518 | 93 | 287 | 1.0 | 4.0 | 0.00 | 0.00 | 0.00 | 20 | 1017.0 |
| 20260905212017 | 93 | 114 | 2.0 | 5.0 | 0.00 | 0.00 | 0.00 | 20 | 1017.0 |
| 20260905211510 | 93 | 46 | 2.0 | 4.0 | 0.00 | 0.00 | 0.00 | 21 | 1017.1 |
| 20260905211010 | 93 | 319 | 1.0 | 5.0 | 0.00 | 0.00 | 0.00 | 21 | 1017.2 |
| 20260905210509 | 93 | 331 | 2.0 | 5.0 | 0.00 | 0.00 | 0.00 | 20 | 1017.3 |
| 20260905210037 | 93 | 60 | 2.0 | 5.0 | 0.00 | 0.00 | 0.00 | 21 | 1017.4 |
| 20260905205511 | 93 | 35 | 1.0 | 5.0 | 0.00 | 0.00 | 0.00 | 21 | 1017.5 |
| 20260905205004 | 92 | 186 | 0.0 | 6.0 | 0.00 | 0.00 | 0.00 | 20 | 1017.7 |
| 20260905204503 | 93 | 60 | 2.0 | 5.0 | 0.00 | 0.00 | 0.00 | 21 | 1017.8 |
| 20260905204003 | 94 | 61 | 3.0 | 7.0 | 0.00 | 0.00 | 0.00 | 20 | 1017.8 |
| 20260905203506 | 93 | 127 | 1.0 | 7.0 | 0.00 | 0.00 | 0.00 | 21 | 1017.9 |
| 20260905203011 | 93 | 159 | 1.0 | 4.0 | 0.00 | 0.00 | 0.00 | 21 | 1018.0 |
| 20260905202508 | 92 | 177 | 1.0 | 5.0 | 0.00 | 0.00 | 0.00 | 22 | 1018.0 |
| 20260905202016 | 92 | 313 | 1.0 | 7.0 | 0.00 | 0.00 | 0.00 | 21 | 1018.0 |
| 20260905201525 | 92 | 58 | 3.0 | 7.0 | 0.00 | 0.00 | 0.00 | 22 | 1018.0 |
| 20260905201006 | 92 | 327 | 2.0 | 8.0 | 0.00 | 0.00 | 0.00 | 21 | 1018.0 |
| 20260905200504 | 91 | 337 | 2.0 | 8.0 | 0.00 | 0.00 | 0.00 | 21 | 1018.2 |
| 20260905200007 | 92 | 50 | 2.0 | 7.0 | 0.00 | 0.00 | 0.00 | 21 | 1018.2 |
| 20260905195506 | 92 | 53 | 1.0 | 9.0 | 0.00 | 0.00 | 0.00 | 21 | 1018.2 |
| 20260905195009 | 92 | 216 | 2.0 | 9.0 | 0.00 | 0.00 | 0.00 | 21 | 1018.2 |
| 20260905194524 | 91 | 57 | 2.0 | 6.0 | 0.00 | 0.00 | 0.00 | 21 | 1018.3 |
| 20260905194013 | 91 | 69 | 2.0 | 6.0 | 0.00 | 0.00 | 0.00 | 1018.4 | |
| 20260905193512 | 91 | 350 | 2.0 | 7.0 | 0.00 | 0.00 | 0.00 | 1018.4 | |
| 20260905193003 | 91 | 90 | 3.0 | 9.0 | 0.00 | 0.00 | 0.00 | 1018.5 | |
| 20260905192504 | 91 | 338 | 3.0 | 9.0 | 0.00 | 0.00 | 0.00 | 21 | 1018.5 |
| 20260905192005 | 90 | 99 | 4.0 | 10.0 | 0.00 | 0.00 | 0.00 | 21 | 1018.5 |
| 20260905191510 | 90 | 69 | 3.0 | 10.0 | 0.00 | 0.00 | 0.00 | 22 | 1018.5 |
| 20260905191010 | 90 | 15 | 4.0 | 9.0 | 0.00 | 0.00 | 0.00 | 22 | 1018.5 |
| 20260905190511 | 90 | 59 | 3.0 | 9.0 | 0.00 | 0.00 | 0.00 | 23 | 1018.5 |
| 20260905190025 | 90 | 40 | 4.0 | 9.0 | 0.00 | 0.00 | 0.00 | 23 | 1018.5 |
| 20260905185514 | 90 | 41 | 2.0 | 9.0 | 0.00 | 0.00 | 0.00 | 22 | 1018.6 |
| 20260905185005 | 90 | 9 | 2.0 | 6.0 | 0.00 | 0.00 | 0.00 | 24 | 1018.6 |
| 20260905184509 | 90 | 67 | 2.0 | 5.0 | 0.00 | 0.00 | 0.00 | 25 | 1018.7 |
| 20260905184010 | 89 | 136 | 1.0 | 8.0 | 0.00 | 0.00 | 0.00 | 26 | 1018.8 |
| 20260905183506 | 89 | 22 | 3.0 | 8.0 | 0.00 | 0.00 | 0.00 | 25 | 1018.9 |
| 20260905183017 | 89 | 44 | 2.0 | 7.0 | 0.00 | 0.00 | 0.00 | 25 | 1019.0 |
| 20260905182512 | 88 | 68 | 2.0 | 4.0 | 0.00 | 0.00 | 0.00 | 26 | 1019.1 |
| 20260905182016 | 88 | 54 | 2.0 | 5.0 | 0.00 | 0.00 | 0.00 | 25 | 1019.1 |
| 20260905181529 | 88 | 52 | 3.0 | 6.0 | 0.00 | 0.00 | 0.00 | 25 | 1019.2 |
| 20260905181004 | 88 | 86 | 3.0 | 5.0 | 0.00 | 0.00 | 0.00 | 24 | 1019.2 |
| 20260905180504 | 87 | 117 | 1.0 | 8.0 | 0.00 | 0.00 | 0.00 | 26 | 1019.2 |
| 20260905180010 | 87 | 61 | 2.0 | 8.0 | 0.00 | 0.00 | 0.00 | 27 | 1019.2 |
| 20260905175507 | 87 | 51 | 2.0 | 7.0 | 0.00 | 0.00 | 0.00 | 26 | 1019.2 |
| 20260905175012 | 87 | 54 | 4.0 | 7.0 | 0.00 | 0.00 | 0.00 | 25 | 1019.3 |
| 20260905174524 | 87 | 76 | 2.0 | 6.0 | 0.00 | 0.00 | 0.00 | 25 | 1019.3 |
| 20260905174016 | 87 | 60 | 1.0 | 7.0 | 0.00 | 0.00 | 0.00 | 27 | 1019.3 |
| 20260905173516 | 87 | 27 | 3.0 | 7.0 | 0.00 | 0.00 | 0.00 | 27 | 1019.3 |
| 20260905173006 | 86 | 42 | 1.0 | 4.0 | 0.00 | 0.00 | 0.00 | 29 | 1019.3 |
| 20260905172505 | 86 | 95 | 1.0 | 6.0 | 0.00 | 0.00 | 0.00 | 30 | 1019.3 |
| 20260905172008 | 85 | 62 | 1.0 | 7.0 | 0.00 | 0.00 | 0.00 | 30 | 1019.3 |
| 20260905171525 | 86 | 40 | 2.0 | 7.0 | 0.00 | 0.00 | 0.00 | 29 | 1019.2 |
| 20260905171013 | 86 | 41 | 2.0 | 6.0 | 0.00 | 0.00 | 0.00 | 30 | 1019.0 |
| 20260905170511 | 86 | 26 | 1.0 | 6.0 | 0.00 | 0.00 | 0.00 | 30 | 1018.9 |
| 20260905170029 | 86 | 67 | 1.0 | 8.0 | 0.00 | 0.00 | 0.00 | 29 | 1018.9 |
| 20260905165520 | 85 | 52 | 2.0 | 8.0 | 0.00 | 0.00 | 0.00 | 29 | 1019.0 |
| 20260905165008 | 85 | 53 | 3.0 | 7.0 | 0.00 | 0.00 | 0.00 | 30 | 1019.0 |
| 20260905164508 | 85 | 52 | 1.0 | 7.0 | 0.00 | 0.00 | 0.00 | 30 | 1019.0 |
| 20260905164009 | 85 | 130 | 2.0 | 8.0 | 0.00 | 0.00 | 0.00 | 31 | 1019.0 |
| 20260905163513 | 85 | 21 | 4.0 | 7.0 | 0.00 | 0.00 | 0.00 | 30 | 1018.9 |
| 20260905163031 | 85 | 79 | 1.0 | 4.0 | 0.00 | 0.00 | 0.00 | 30 | 1018.9 |
| 20260905162516 | 85 | 67 | 1.0 | 3.0 | 0.00 | 0.00 | 0.00 | 29 | 1018.8 |
| 20260905162016 | 84 | 15 | 1.0 | 5.0 | 0.00 | 0.00 | 0.00 | 31 | 1018.8 |
| 20260905161533 | 83 | 51 | 3.0 | 5.0 | 0.00 | 0.00 | 0.00 | 33 | 1018.9 |
| 20260905161003 | 83 | 43 | 1.0 | 6.0 | 0.00 | 0.00 | 0.00 | 38 | 1018.9 |
| 20260905160507 | 83 | 67 | 3.0 | 6.0 | 0.00 | 0.00 | 0.00 | 38 | 1018.9 |
| 20260905160015 | 82 | 337 | 1.0 | 3.0 | 0.00 | 0.00 | 0.00 | 35 | 1018.9 |
| 20260905155512 | 81 | 78 | 1.0 | 3.0 | 0.00 | 0.00 | 0.00 | 38 | 1018.9 |
| 20260905155014 | 80 | 24 | 1.0 | 3.0 | 0.00 | 0.00 | 0.00 | 39 | 1018.9 |
| 20260905154524 | 79 | 62 | 1.0 | 2.0 | 0.00 | 0.00 | 0.00 | 39 | 1018.9 |
| 20260905154014 | 78 | 55 | 0.0 | 2.0 | 0.00 | 0.00 | 0.00 | 40 | 1018.8 |
| 20260905153518 | 77 | 41 | 0.0 | 2.0 | 0.00 | 0.00 | 0.00 | 46 | 1018.8 |
| 20260905153010 | 76 | 43 | 0.0 | 2.0 | 0.00 | 0.00 | 0.00 | 48 | 1018.8 |
| 20260905152507 | 75 | 120 | 0.0 | 2.0 | 0.00 | 0.00 | 0.00 | 47 | 1018.8 |
| 20260905152007 | 75 | 113 | 0.0 | 2.0 | 0.00 | 0.00 | 0.00 | 49 | 1018.8 |
| 20260905151520 | 75 | 138 | 0.0 | 2.0 | 0.00 | 0.00 | 0.00 | 47 | 1018.8 |
| 20260905151012 | 75 | 156 | 0.0 | 2.0 | 0.00 | 0.00 | 0.00 | 44 | 1018.8 |
| 20260905150515 | 74 | 169 | 0.0 | 2.0 | 0.00 | 0.00 | 0.00 | 43 | 1018.8 |
| 20260905150041 | 74 | 187 | 0.0 | 2.0 | 0.00 | 0.00 | 0.00 | 43 | 1018.8 |
| 20260905145517 | 73 | 113 | 0.0 | 2.0 | 0.00 | 0.00 | 0.00 | 46 | 1018.8 |
| 20260905145005 | 72 | 103 | 0.0 | 2.0 | 0.00 | 0.00 | 0.00 | 52 | 1018.8 |
| 20260905144517 | 71 | 117 | 0.0 | 2.0 | 0.00 | 0.00 | 0.00 | 49 | 1018.8 |
| 20260905144011 | 70 | 107 | 0.0 | 2.0 | 0.00 | 0.00 | 0.00 | 54 | 1018.8 |
| 20260905143510 | 69 | 106 | 1.0 | 2.0 | 0.00 | 0.00 | 0.00 | 53 | 1018.8 |
| 20260905143025 | 68 | 108 | 0.0 | 2.0 | 0.00 | 0.00 | 0.00 | 54 | 1018.9 |
| 20260905142513 | 67 | 108 | 0.0 | 2.0 | 0.00 | 0.00 | 0.00 | 55 | 1018.9 |
| 20260905142020 | 66 | 222 | 0.0 | 2.0 | 0.00 | 0.00 | 0.00 | 58 | 1018.9 |
| 20260905141535 | 65 | 236 | 0.0 | 2.0 | 0.00 | 0.00 | 0.00 | 59 | 1018.8 |
| 20260905141007 | 64 | 240 | 1.0 | 2.0 | 0.00 | 0.00 | 0.00 | 61 | 1018.8 |
| 20260905140510 | 62 | 221 | 0.0 | 2.0 | 0.00 | 0.00 | 0.00 | 62 | 1018.7 |
| 20260905140018 | 62 | 204 | 0.0 | 2.0 | 0.00 | 0.00 | 0.00 | 63 | 1018.7 |
| 20260905135512 | 62 | 204 | 0.0 | 2.0 | 0.00 | 0.00 | 0.00 | 63 | 1018.7 |
| 20260905135018 | 61 | 204 | 0.0 | 2.0 | 0.00 | 0.00 | 0.00 | 63 | 1018.7 |
| 20260905134531 | 61 | 199 | 0.0 | 2.0 | 0.00 | 0.00 | 0.00 | 66 | 1018.7 |
| 20260905134017 | 60 | 196 | 0.0 | 2.0 | 0.00 | 0.00 | 0.00 | 66 | 1018.7 |
| 20260905133515 | 59 | 194 | 0.0 | 2.0 | 0.00 | 0.00 | 0.00 | 65 | 1018.6 |
| 20260905133010 | 59 | 194 | 0.0 | 2.0 | 0.00 | 0.00 | 0.00 | 66 | 1018.7 |
| 20260905132510 | 59 | 194 | 0.0 | 2.0 | 0.00 | 0.00 | 0.00 | 65 | 1018.7 |
| 20260905132010 | 59 | 194 | 0.0 | 2.0 | 0.00 | 0.00 | 0.00 | 64 | 1018.6 |
| 20260905131535 | 59 | 194 | 0.0 | 2.0 | 0.00 | 0.00 | 0.00 | 64 | 1018.5 |
| 20260905131014 | 59 | 194 | 0.0 | 2.0 | 0.00 | 0.00 | 0.00 | 63 | 1018.5 |
| 20260905130515 | 58 | 195 | 0.0 | 2.0 | 0.00 | 0.00 | 0.00 | 62 | 1018.4 |
| 20260905130031 | 58 | 195 | 0.0 | 2.0 | 0.00 | 0.00 | 0.00 | 63 | 1018.4 |
| 20260905125517 | 58 | 193 | 0.0 | 2.0 | 0.00 | 0.00 | 0.00 | 63 | 1018.4 |
| 20260905125009 | 58 | 192 | 0.0 | 2.0 | 0.00 | 0.00 | 0.00 | 60 | 1018.2 |
| 20260905124515 | 58 | 192 | 0.0 | 2.0 | 0.00 | 0.00 | 0.00 | 63 | 1018.1 |
| 20260905124015 | 58 | 198 | 0.0 | 2.0 | 0.00 | 0.00 | 0.00 | 64 | 1018.0 |
| 20260905123512 | 58 | 198 | 0.0 | 2.0 | 0.00 | 0.00 | 0.00 | 64 | 1018.0 |
| 20260905123037 | 58 | 208 | 0.0 | 2.0 | 0.00 | 0.00 | 0.00 | 64 | 1017.9 |
| 20260905122515 | 58 | 208 | 0.0 | 2.0 | 0.00 | 0.00 | 0.00 | 64 | 1017.9 |
| 20260905122018 | 58 | 208 | 0.0 | 2.0 | 0.00 | 0.00 | 0.00 | 64 | 1017.9 |
| 20260905121509 | 58 | 217 | 0.0 | 2.0 | 0.00 | 0.00 | 0.00 | 64 | 1017.9 |
| 20260905121006 | 59 | 213 | 0.0 | 2.0 | 0.00 | 0.00 | 0.00 | 64 | 1017.9 |
| 20260905120507 | 59 | 213 | 0.0 | 2.0 | 0.00 | 0.00 | 0.00 | 63 | 1017.9 |
| 20260905120021 | 59 | 192 | 0.0 | 2.0 | 0.00 | 0.00 | 0.00 | 63 | 1017.9 |
| 20260905115505 | 59 | 193 | 0.0 | 2.0 | 0.00 | 0.00 | 0.00 | 63 | 1018.0 |
| 20260905115003 | 60 | 182 | 0.0 | 1.0 | 0.00 | 0.00 | 0.00 | 62 | 1018.0 |
| 20260905114514 | 60 | 191 | 0.0 | 2.0 | 0.00 | 0.00 | 0.00 | 61 | 1018.0 |
| 20260905114004 | 60 | 215 | 0.0 | 2.0 | 0.00 | 0.00 | 0.00 | 61 | 1018.0 |
| 20260905113507 | 60 | 215 | 0.0 | 2.0 | 0.00 | 0.00 | 0.00 | 60 | 1018.1 |
| 20260905113014 | 61 | 215 | 0.0 | 2.0 | 0.00 | 0.00 | 0.00 | 59 | 1018.1 |
| 20260905112508 | 61 | 215 | 0.0 | 2.0 | 0.00 | 0.00 | 0.00 | 58 | 1018.1 |
| 20260905112012 | 62 | 223 | 0.0 | 2.0 | 0.00 | 0.00 | 0.00 | 56 | 1018.1 |
| 20260905111504 | 62 | 223 | 0.0 | 2.0 | 0.00 | 0.00 | 0.00 | 56 | 1018.2 |
| 20260905111003 | 62 | 223 | 0.0 | 1.0 | 0.00 | 0.00 | 0.00 | 56 | 1018.3 |
| 20260905110505 | 63 | 227 | 0.0 | 2.0 | 0.00 | 0.00 | 0.00 | 54 | 1018.2 |
| 20260905110007 | 63 | 227 | 0.0 | 2.0 | 0.00 | 0.00 | 0.00 | 54 | 1018.2 |
| 20260905105508 | 64 | 227 | 0.0 | 2.0 | 0.00 | 0.00 | 0.00 | 53 | 1018.1 |
| 20260905105008 | 64 | 227 | 0.0 | 2.0 | 0.00 | 0.00 | 0.00 | 53 | 1018.0 |
| 20260905104518 | 65 | 350 | 0.0 | 3.0 | 0.00 | 0.00 | 0.00 | 52 | 1018.0 |
| 20260905104008 | 65 | 350 | 1.0 | 3.0 | 0.00 | 0.00 | 0.00 | 51 | 1018.0 |
| 20260905103504 | 65 | 291 | 0.0 | 2.0 | 0.00 | 0.00 | 0.00 | 49 | 1017.8 |
| 20260905103006 | 65 | 286 | 0.0 | 2.0 | 0.00 | 0.00 | 0.00 | 49 | 1017.8 |
| 20260905102504 | 66 | 288 | 0.0 | 2.0 | 0.00 | 0.00 | 0.00 | 48 | 1017.8 |
| 20260905102003 | 66 | 227 | 0.0 | 2.0 | 0.00 | 0.00 | 0.00 | 47 | 1017.8 |
| 20260905101514 | 66 | 264 | 0.0 | 2.0 | 0.00 | 0.00 | 0.00 | 47 | 1017.8 |
| 20260905101010 | 66 | 344 | 0.0 | 4.0 | 0.00 | 0.00 | 0.00 | 46 | 1017.7 |
| 20260905100510 | 66 | 252 | 1.0 | 4.0 | 0.00 | 0.00 | 0.00 | 45 | 1017.7 |
| 20260905100021 | 65 | 181 | 1.0 | 6.0 | 0.00 | 0.00 | 0.00 | 48 | 1017.7 |
| 20260905095503 | 64 | 198 | 1.0 | 6.0 | 0.00 | 0.00 | 0.00 | 50 | 1017.5 |
| 20260905095007 | 62 | 229 | 1.0 | 4.0 | 0.00 | 0.00 | 0.00 | 53 | 1017.5 |
| 20260905094506 | 61 | 188 | 1.0 | 2.0 | 0.00 | 0.00 | 0.00 | 55 | 1017.6 |
| 20260905094007 | 62 | 132 | 0.0 | 2.0 | 0.00 | 0.00 | 0.00 | 55 | 1017.5 |
| 20260905093509 | 62 | 118 | 0.0 | 2.0 | 0.00 | 0.00 | 0.00 | 55 | 1017.4 |
| 20260905093018 | 62 | 202 | 0.0 | 1.0 | 0.00 | 0.00 | 0.00 | 54 | 1017.3 |
| 20260905092511 | 62 | 203 | 0.0 | 2.0 | 0.00 | 0.00 | 0.00 | 54 | 1017.3 |
| 20260905092016 | 62 | 198 | 0.0 | 2.0 | 0.00 | 0.00 | 0.00 | 54 | 1017.2 |
| 20260905091506 | 62 | 170 | 0.0 | 2.0 | 0.00 | 0.00 | 0.00 | 53 | 1017.3 |
| 20260905091004 | 63 | 170 | 0.0 | 2.0 | 0.00 | 0.00 | 0.00 | 53 | 1017.3 |
| 20260905090012 | 63 | 185 | 0.0 | 2.0 | 0.00 | 0.00 | 0.00 | 52 | 1017.2 |
| 20260905085510 | 63 | 185 | 0.0 | 2.0 | 0.00 | 0.00 | 0.00 | 51 | 1017.1 |
| 20260905085009 | 63 | 183 | 0.0 | 2.0 | 0.00 | 0.00 | 0.00 | 52 | 1017.2 |
| 20260905084519 | 64 | 183 | 0.0 | 2.0 | 0.00 | 0.00 | 0.00 | 51 | 1017.1 |
| 20260905084012 | 64 | 183 | 0.0 | 2.0 | 0.00 | 0.00 | 0.00 | 51 | 1017.1 |
| 20260905083503 | 64 | 183 | 0.0 | 2.0 | 0.00 | 0.00 | 0.00 | 49 | 1017.1 |
| 20260905083009 | 64 | 183 | 0.0 | 2.0 | 0.00 | 0.00 | 0.00 | 49 | 1017.2 |
| 20260905082504 | 65 | 183 | 0.0 | 2.0 | 0.00 | 0.00 | 0.00 | 49 | 1017.2 |